FW1003 Weather Reports


Display with metric or nautical units.
time (UTC)temp
F
wind
direction
speed
MPH
gust
MPH
rain 1hr
in
rain 24hr
in
rain mn
in
humidity
%
barometer
mb
20260510081527 79 180 2.0 5.0 0.00 0.01 0.00 60 1018.3
20260510080027 79 286 1.0 5.0 0.00 0.01 0.00 63 1018.4
20260510071536 77 138 1.0 5.0 0.00 0.01 0.01 67 1018.4
20260510070034 77 162 2.0 9.0 0.00 0.01 0.01 67 1018.3
20260510064526 77 143 2.0 7.0 0.00 0.01 0.01 68 1018.1
20260510063022 76 134 1.0 6.0 0.00 0.01 0.01 69 1018.1
20260510061518 75 142 2.0 6.0 0.00 0.01 0.01 73 1018.2
20260510060013 74 50 1.0 5.0 0.00 0.01 0.01 76 1018.2
20260510054509 73 111 0.0 3.0 0.00 0.01 0.01 79 1017.9
20260510053006 72 31 0.0 3.0 0.00 0.01 0.01 80 1018.0
20260510051503 71 336 0.0 5.0 0.00 0.01 0.01 81 1018.1
20260510050058 70 308 1.0 5.0 0.00 0.01 0.01 81 1018.0
20260510044600 70 103 0.0 4.0 0.00 0.01 0.01 82 1018.1
20260510043050 69 57 0.0 3.0 0.00 0.01 0.01 81 1018.2
20260510041550 68 355 0.0 1.0 0.00 0.01 0.01 82 1017.9
20260510040040 66 355 0.0 0.0 0.00 0.01 0.01 81 1017.9
20260510034536 66 355 0.0 3.0 0.00 0.01 0.01 80 1017.8
20260510033031 66 302 0.0 0.0 0.00 0.01 0.01 81 1017.5
20260510031530 64 302 0.0 0.0 0.00 0.01 0.01 81 1017.4
20260510030023 64 302 0.0 0.0 0.00 0.01 0.01 80 1017.4
20260510024522 64 302 0.0 0.0 0.00 0.01 0.01 80 1017.4
20260510023018 65 302 0.0 0.0 0.00 0.01 0.01 80 1017.5
20260510021527 65 302 0.0 1.0 0.00 0.01 0.01 80 1017.4
20260510020016 65 302 0.0 2.0 0.00 0.01 0.01 80 1017.7
20260510014517 65 304 0.0 0.0 0.00 0.01 0.01 80 1017.7
20260510013015 65 306 0.0 0.0 0.00 0.01 0.01 80 1017.7
20260510011514 64 306 0.0 0.0 0.00 0.01 0.01 80 1017.8
20260510010101 65 306 0.0 1.0 0.00 0.01 0.01 80 1017.7
20260510004556 65 306 0.0 0.0 0.00 0.01 0.01 79 1017.7
20260510003058 66 306 0.0 0.0 0.01 0.01 0.01 80 1017.7
20260510001548 66 306 0.0 3.0 0.01 0.01 0.01 80 1017.8
20260510000052 66 288 0.0 2.0 0.01 0.01 0.01 80 1017.7
20260509234603 66 288 0.0 0.0 0.01 0.01 0.01 80 1017.8
20260509233045 66 288 0.0 3.0 0.00 0.00 0.00 79 1017.9
20260509231545 66 288 0.0 1.0 0.00 0.00 0.00 79 1017.9
20260509230042 67 288 0.0 2.0 0.00 0.00 0.00 79 1017.8
20260509224540 67 288 0.0 4.0 0.00 0.00 0.00 79 1017.9
20260509223045 67 176 0.0 2.0 0.00 0.00 0.00 79 1017.9
20260509221540 67 215 0.0 0.0 0.00 0.00 0.00 79 1018.0
20260509220052 68 219 0.0 2.0 0.00 0.00 0.00 79 1017.9
20260509214541 68 219 0.0 3.0 0.00 0.00 0.00 79 1018.1
20260509213013 68 225 0.0 2.0 0.00 0.00 0.00 79 1018.0
20260509211512 68 256 0.0 3.0 0.00 0.00 0.00 79 1017.9
20260509210012 68 275 0.0 2.0 0.00 0.00 0.00 79 1017.9
20260509204520 68 315 0.0 0.0 0.00 0.00 0.00 78 1018.2
20260509203009 68 318 0.0 2.0 0.00 0.00 0.00 78 1018.2
20260509201508 68 319 0.0 1.0 0.00 0.00 0.00 78 1018.0
20260509200011 69 319 0.0 3.0 0.00 0.00 0.00 78 1018.1
20260509194509 69 325 0.0 4.0 0.00 0.00 0.00 78 1018.1
20260509193007 69 322 0.0 4.0 0.00 0.00 0.00 78 1018.0
20260509191506 69 102 0.0 2.0 0.00 0.00 0.00 78 1018.1
20260509190006 70 305 0.0 5.0 0.00 0.00 0.00 78 1018.1
20260509184505 70 299 0.0 4.0 0.00 0.00 0.00 77 1018.0
20260509183004 70 319 0.0 4.0 0.00 0.00 0.00 77 1017.7
20260509181504 70 198 0.0 2.0 0.00 0.00 0.00 77 1017.5
20260509180004 70 198 0.0 6.0 0.00 0.00 0.00 76 1017.4
20260509174503 70 347 1.0 4.0 0.00 0.00 0.00 76 1017.4
20260509173002 70 310 0.0 6.0 0.00 0.00 0.00 76 1017.4
20260509171503 71 328 1.0 9.0 0.00 0.00 0.00 75 1017.2
20260509170046 71 329 1.0 10.0 0.00 0.00 0.00 75 1017.2
20260509164547 71 360 0.0 5.0 0.00 0.00 0.00 74 1016.9
20260509163045 71 330 1.0 5.0 0.00 0.00 0.00 74 1016.7
20260509161542 72 283 2.0 8.0 0.00 0.00 0.00 73 1016.7
20260509160042 72 317 2.0 14.0 0.00 0.00 0.00 72 1016.6
20260509154550 73 318 3.0 8.0 0.00 0.00 0.00 71 1016.6
20260509153040 74 311 2.0 5.0 0.00 0.00 0.00 70 1016.6
20260509151543 74 319 3.0 8.0 0.00 0.00 0.00 69 1016.8
20260509150036 74 267 3.0 9.0 0.00 0.00 0.00 69 1016.5
20260509144546 75 17 2.0 13.0 0.00 0.00 0.00 68 1016.5
20260509143039 75 327 2.0 11.0 0.00 0.00 0.00 66 1016.4
20260509141538 76 351 4.0 14.0 0.00 0.00 0.00 64 1016.4
20260509140053 77 323 4.0 11.0 0.00 0.00 0.00 63 1016.5
20260509134533 77 338 4.0 14.0 0.00 0.00 0.00 62 1016.7
20260509133031 78 337 5.0 14.0 0.00 0.00 0.00 60 1016.7
20260509131540 79 303 4.0 14.0 0.00 0.00 0.00 59 1016.6
20260509130029 79 310 2.0 13.0 0.00 0.00 0.00 59 1016.6
20260509124526 79 291 4.0 12.0 0.00 0.00 0.00 59 1016.8
20260509123025 79 351 3.0 13.0 0.00 0.00 0.00 59 1017.0
20260509121526 79 343 7.0 15.0 0.00 0.00 0.00 57 1017.0
20260509120023 79 320 4.0 17.0 0.00 0.00 0.00 58 1016.9
20260509114522 79 338 6.0 15.0 0.00 0.00 0.00 59 1017.1
20260509113021 80 112 4.0 15.0 0.00 0.00 0.00 57 1017.2
20260509111520 79 346 7.0 13.0 0.00 0.00 0.00 57 1017.2
20260509110016 81 333 4.0 14.0 0.00 0.00 0.00 57 1017.3
20260509104518 81 309 5.0 14.0 0.00 0.00 0.00 57 1017.5
20260509103014 81 273 4.0 15.0 0.00 0.00 0.00 56 1017.4
20260509101513 81 286 3.0 10.0 0.00 0.00 0.00 56 1017.7
20260509100013 82 271 2.0 12.0 0.00 0.00 0.00 54 1017.8
20260509094512 81 292 4.0 12.0 0.00 0.00 0.00 54 1017.8
20260509093011 83 244 3.0 9.0 0.00 0.00 0.00 53 1018.0
20260509091509 83 10 3.0 9.0 0.00 0.00 0.00 53 1017.9
20260509090104 82 360 3.0 10.0 0.00 0.00 0.00 53 1017.9
20260509084547 82 360 3.0 9.0 0.00 0.00 0.00 53 1018.1
20260509083050 80 310 4.0 13.0 0.00 0.00 0.00 53 1018.3